Flag for Germany Weather past 2 weeks in Darmstadt, Hesse, Germany

Now
52 °F

Light rain. Mostly cloudy.


Feels Like: 47 °F
Forecast: 44 / 50 °F
Wind: 15 mph from Southwest

Location: Frankfurt-M-Flughafen Airport

Current Time: Mar 29, 2015 at 1:21:34 PM

Latest Report: Mar 29, 2015 at 12:50 PM


Visibility: N/A

Pressure: 29.68 "Hg

Humidity: 82%

Dew point: 46 °F

Location of DarmstadtLocation

Historic Weather in Darmstadt — Graph

°F

Darmstadt temperature yesterday

Maximum temperature yesterday: 55 °F (at 12:20 PM)
Minimum temperature yesterday: 36 °F (at 6:20 AM)
Average temperature yesterday: 47 °F

Past Weeks' High & Low Weather Summary

 TemperatureHumidityPressure
High64 °F (Mar 18, 2:50 PM)100% (Mar 21, 5:50 AM)30.30 "Hg (Mar 21, 5:50 AM)
Low28 °F (Mar 24, 3:50 AM)32% (Mar 26, 4:50 PM)29.59 "Hg (Mar 25, 2:20 PM)
Average46 °F70%30.06 "Hg
* Reported Mar 14 11:20 AM — Mar 29 12:20 PM, Darmstadt, Weather by CustomWeather, © 2015

Note: Actual official high and low records may vary slightly from our data, if they occured in-between our weather recording intervals... More about our weather records

Advertising

Darmstadt weather history for previous 24 hours

 ConditionsComfort  
Time TempWeatherWind HumidityBarometerVisibility
12:20 PM
Sun, Mar 29
52 °FLight rain. Broken clouds.15 mph82%29.71 "HgN/A
11:50 AM52 °FLight rain. Broken clouds.16 mph77%29.71 "HgN/A
11:20 AM52 °FLight rain. Broken clouds.20 mph77%29.71 "HgN/A
10:50 AM52 °FLight rain. Broken clouds.18 mph82%29.74 "HgN/A
10:20 AM50 °FLight rain. Broken clouds.14 mph88%29.74 "HgN/A
9:50 AM52 °FLight rain. Broken clouds.15 mph82%29.74 "HgN/A
9:20 AM52 °FLight rain. Broken clouds.17 mph82%29.74 "HgN/A
8:50 AM54 °FBroken clouds.18 mph77%29.77 "HgN/A
8:20 AM54 °FLight rain. Broken clouds.18 mph77%29.77 "HgN/A
7:50 AM54 °FPartly cloudy.20 mph77%29.77 "HgN/A
7:20 AM54 °FPartly cloudy.17 mph77%29.77 "HgN/A
6:50 AM54 °FPartly cloudy.15 mph77%29.77 "HgN/A
6:20 AM54 °FPartly cloudy.13 mph77%29.77 "HgN/A
5:50 AM52 °FPassing clouds.16 mph82%29.80 "HgN/A
5:20 AM54 °FPassing clouds.15 mph82%29.80 "HgN/A
4:50 AM54 °FPassing clouds.16 mph82%29.80 "HgN/A
4:20 AM54 °FPassing clouds.15 mph77%29.83 "HgN/A
3:50 AM52 °FPassing clouds.15 mph82%29.80 "HgN/A
3:20 AM50 °FPassing clouds.13 mph88%29.83 "HgN/A
1:50 AM50 °FPartly cloudy.14 mph88%29.86 "HgN/A
1:20 AM50 °FPassing clouds.13 mph88%29.86 "HgN/A
12:50 AM50 °FPassing clouds.13 mph88%29.89 "HgN/A
12:20 AM50 °FPassing clouds.13 mph88%29.89 "HgN/A
11:50 PM
Sat, Mar 28
48 °FOvercast.13 mph94%29.92 "HgN/A
11:20 PM48 °FLight rain. Passing clouds.14 mph94%29.92 "Hg5 mi
10:50 PM50 °FLight rain. Overcast.16 mph82%29.92 "HgN/A
10:20 PM50 °FPassing clouds.13 mph82%29.95 "HgN/A
9:50 PM50 °FPassing clouds.12 mph82%29.95 "HgN/A
9:20 PM50 °FOvercast.12 mph76%29.98 "HgN/A
8:50 PM50 °FOvercast.10 mph76%29.98 "HgN/A
8:20 PM50 °FOvercast.10 mph71%29.98 "HgN/A
7:50 PM50 °FOvercast.12 mph71%30.01 "HgN/A
7:20 PM50 °FOvercast.10 mph71%29.98 "HgN/A
6:50 PM50 °FLight rain. Overcast.13 mph71%30.01 "HgN/A
6:20 PM50 °FLight rain. Overcast.12 mph71%30.01 "HgN/A
5:50 PM50 °FLight rain. Overcast.15 mph76%30.01 "HgN/A
5:20 PM52 °FLight rain. Overcast.12 mph62%30.01 "HgN/A
4:50 PM52 °FLight rain. Overcast.9 mph67%30.01 "HgN/A
4:20 PM52 °FLight rain. Overcast.10 mph62%30.01 "HgN/A
3:50 PM54 °FLight rain. Overcast.16 mph51%30.04 "HgN/A
3:20 PM55 °FSunny.16 mph38%30.04 "Hg10 mi
2:50 PM55 °FSunny.17 mph38%30.04 "Hg10 mi
2:20 PM55 °FSunny.15 mph38%30.04 "Hg10 mi
1:50 PM55 °FPassing clouds.15 mph36%30.07 "HgN/A
1:20 PM55 °FPassing clouds.14 mph36%30.07 "HgN/A
Weather by CustomWeather, © 2015

See weather overviewHow to use our weather pages